Ghazvin, Iran

12:51 PM +0330 on December 18, 2017 (GMT +0330)
Ghazvin

Weather History for OIIK - December, 2012

Change the Weather History Date:

Monday, December 10, 2012

  Actual Average Record
Temperature  
Mean Temperature 40 °F -  
Max Temperature 53 °F - - ()
Min Temperature 28 °F - - ()
Degree Days  
Heating Degree Days 24    
Moisture  
Dew Point 31 °F    
Average Humidity 69    
Maximum Humidity 93    
Minimum Humidity 33    
Precipitation  
Precipitation 0.02 in - - ()
Sea Level Pressure  
Sea Level Pressure 30.06 in    
Wind  
Wind Speed 1 mph ()    
Max Wind Speed 9 mph    
Max Gust Speed -    
Visibility 5.4 miles    
Events      
T = Trace of Precipitation, MM = Missing Value Source: Averaged Metar Reports

Daily Weather History Graph

Daily Weather History Graph

Search for Another Location

Airport or City:

Trip Planner

Search our weather history database for the weather conditions in past years. The results will help you decide how hot, cold, wet, or windy it might be!

Date:

Astronomy

Dec. 10, 2012 Rise Set
Actual Time 7:10 AM +0330 4:55 PM +0330
Civil Twilight 6:41 AM +0330 5:23 PM +0330
Nautical Twilight 6:09 AM +0330 5:55 PM +0330
Astronomical Twilight 5:38 AM +0330 6:27 PM +0330
Moon 3:30 AM +0330 (12/10) 2:23 PM +0330 (12/10)
Length of Visible Light 10h 42m
Length of Day
9h 44m
Waning Crescent, 13% of the Moon is Illuminated
Dec 10
Waning Crescent
Dec 13
New
Dec 20
First Quarter
Dec 28
Full
Jan 5
Last Quarter

Hourly Weather History & Observations

Time (+0330) Temp. Windchill Dew Point Humidity Pressure Visibility Wind Dir Wind Speed Gust Speed Precip Events Conditions
12:20 AM 35.6 °F - 30.2 °F 81% 30.09 in - Calm Calm - N/A   Clear
12:30 AM 35.6 °F - 30.2 °F 81% 30.09 in - Calm Calm - N/A   Clear
1:20 AM 35.6 °F - 30.2 °F 81% 30.09 in - Calm Calm - N/A   Clear
1:30 AM 35.6 °F - 30.2 °F 81% 30.09 in - Calm Calm - N/A   Clear
2:20 AM 33.8 °F - 30.2 °F 87% 30.09 in - Calm Calm - N/A   Clear
3:30 AM 34 °F - 30 °F 79% 30.11 in 6 mi Calm Calm - -  
3:30 AM 33.8 °F - 30.2 °F 87% 30.09 in - Calm Calm - N/A   Clear
4:30 AM 33.8 °F - 32.0 °F 93% 30.09 in - Calm Calm - N/A   Clear
5:30 AM 33.8 °F - 28.4 °F 81% 30.06 in - Calm Calm - N/A   Clear
6:30 AM 33.8 °F - 26.6 °F 75% 30.06 in - Calm Calm - N/A   Clear
7:30 AM 28.4 °F - 26.6 °F 93% 30.09 in 3.1 mi Calm Calm - N/A   Mist
8:20 AM 33.8 °F - 30.2 °F 87% 30.09 in 4.3 mi Calm Calm - N/A   Unknown
8:30 AM 33.8 °F - 30.2 °F 87% 30.09 in 4.3 mi Calm Calm - N/A   Unknown
9:30 AM 43 °F - 33 °F 56% 30.14 in 4 mi Calm Calm - -   Haze
9:30 AM 42.8 °F - 32.0 °F 66% 30.09 in 4.3 mi Calm Calm - N/A   Unknown
10:30 AM 46.4 °F 44.3 °F 33.8 °F 62% 30.09 in 4.3 mi ESE 4.6 mph - N/A   Unknown
11:30 AM 50.0 °F - 33.8 °F 54% 30.09 in 5.0 mi SE 6.9 mph - N/A   Unknown
12:30 PM 51.8 °F - 32.0 °F 47% 30.06 in - SSE 6.9 mph - N/A   Clear
1:30 PM 53.6 °F - 30.2 °F 41% 30.04 in 6.2 mi SE 6.9 mph - N/A   Partly Cloudy
2:30 PM 53.6 °F - 28.4 °F 38% 30.01 in 6.2 mi SE 9.2 mph - N/A   Partly Cloudy
3:30 PM 51 °F - 31 °F 33% 30.04 in 9 mi SSE 4.5 mph - -   Clear
3:30 PM 50.0 °F - 30.2 °F 47% 30.01 in - SSE 4.6 mph - N/A   Clear
4:30 PM 48.2 °F - 32.0 °F 54% 30.01 in - Calm Calm - N/A   Clear
5:30 PM 46.4 °F 44.3 °F 33.8 °F 62% 30.01 in - East 4.6 mph - N/A   Clear
6:30 PM 46.4 °F - 33.8 °F 62% 30.01 in 6.2 mi Calm Calm - N/A   Overcast
7:30 PM 44.6 °F - 35.6 °F 71% 30.01 in 6.2 mi Calm Calm - N/A   Overcast
8:30 PM 44.6 °F - 35.6 °F 71% 30.01 in - Calm Calm - N/A   Clear
9:30 PM 42 °F - 33 °F 61% 30.01 in 6 mi Calm Calm - -   Partly Cloudy
10:30 PM 41.0 °F - 32.0 °F 70% 29.98 in - Calm Calm - N/A   Clear
11:30 PM 41.0 °F - 33.8 °F 76% 29.98 in - Calm Calm - N/A   Clear